Regional Weather Roundup
Issued by NWS

Home | Current Version | Previous Version | Graphics & Text | Print | Product List | Glossary On
Versions: 1 2 3 4 5 6 7 8 9 10 11 12 13 14 15 16 17 18 19 20 21 22 23 24 25 26 27 28 29 30 31 32 33 34 35 36 37 38 39 40 41 42 43 44 45 46 47 48 49 50
476
ASUS44 KMEG 090810
RWRTN
TENNESSEE HOURLY STATE WEATHER ROUNDUP
NATIONAL WEATHER SERVICE MEMPHIS TN
200 AM CST TUE FEB 09 2016

TNZ002-004-019-021-049-052-054-088>092-090900-
WEST TENNESSEE

CITY           SKY/WX    TMP DP  RH WIND       PRES   REMARKS
MEMPHIS INTL   CLOUDY    35  17  47 NW21G28   29.96S WCI  24
NWS MEMPHIS      N/A     33 N/A N/A MISG        N/A
JACKSON        CLOUDY    31  18  58 NW12      29.92F WCI  22
DYERSBURG      CLOUDY    30  16  55 NW12G20   29.94F WCI  21
UNION CITY       N/A     27  16  63 NW12      29.89F WCI  16
PARIS          CLOUDY    25  12  58 W10       29.88F WCI  15
$$

TNZ008-025-027-028-033-062-065-066-090900-
NORTH MIDDLE TENNESSEE

CITY           SKY/WX    TMP DP  RH WIND       PRES   REMARKS
NASHVILLE      FLURRIES  27  19  72 W6        29.86F WCI  20
CLARKSVILLE    LGT SNOW  25  21  85 NW9       29.87S FOG     WCI  15
SMYRNA         FLURRIES  25  21  84 NW7       29.88F WCI  17
COOKEVILLE     CLOUDY    25  18  74 NW9       29.79F WCI  15
CROSSVILLE     LGT SNOW  22  15  75 W16       29.74F WCI   8
$$

TNZ061-075-076-078-094-096-097-090900-
SOUTH MIDDLE TENNESSEE

CITY           SKY/WX    TMP DP  RH WIND       PRES   REMARKS
FAYETTEVILLE   CLOUDY    30  21  69 W6        29.84S WCI  24
TULLAHOMA      CLOUDY    27  19  74 W13       29.82F WCI  16
WINCHESTER     CLOUDY    28  18  64 NW12      29.82F WCI  18
MCMINNVILLE    CLOUDY    23  19  86 NW10      29.81F WCI  12
COLUMBIA       CLOUDY    28  25  86 NW3       29.84F
SHELBYVILLE    CLOUDY    28  21  74 W13       29.85S WCI  18
$$

TNZ017-018-042-046-047-090900-
NORTHEAST TENNESSEE

CITY           SKY/WX    TMP DP  RH WIND       PRES   REMARKS
TRI CITIES     CLOUDY    28  23  81 SW13      29.69S WCI  17
$$

TNZ012-013-036-069-073-074-090900-
CENTRAL EAST TENNESSEE

CITY           SKY/WX    TMP DP  RH WIND       PRES   REMARKS
KNOXVILLE      CLOUDY    29  18  63 W13       29.78S WCI  19
OAK RIDGE      CLOUDY    30  20  66 VRB5      29.78F WCI  25
GATLINBURG     CLOUDY    28  19  69 W8        29.75F WCI  20
MORRISTOWN     CLOUDY    28  21  74 W12G18    29.72S WCI  18
$$

TNZ083-085-099-090900-
SOUTHEAST TENNESSEE

CITY           SKY/WX    TMP DP  RH WIND       PRES   REMARKS
CHATTANOOGA    CLOUDY    32  19  58 W7        29.82F WCI  26
$$

SKY/WX REPORTED AS FAIR MEANS FEW OR NO CLOUDS BELOW
12 THOUSAND FEET.





USA.gov is the U.S. government's official web portal to all federal, state and local government web resources and services.